Location: Cabeza de los Veneras
(40.2000°N, 5.2000°W)
Time: 02:23:59
(UTC+00:00)

Cosmos 1459 Rocket - Pass Details

Date: 18 April 2024
Orbit: 936 x 998 km, 83.0° (Epoch: 25 May)

Event Time Altitude Azimuth Distance (km) Brightness Sun altitude
Rises 22:29:20 0° 352° (N) 3,607 7.9 -32.5°
Reaches altitude 10° 22:31:49 10° 353° (N) 2,663 7.0 -32.8°
Enters shadow 22:36:39 59° 352° (N) 1,083 4.3 -33.2°
